Terug naar catalogus

STARLINK-5054

ActiefCommunicatieVLEO
NORAD 53906·PAYLOAD·🇺🇸 United States

Gelanceerd Sep 24, 2022 vanaf Cape Canaveral Space Force Station

Loading…

Volgende Passages (komende 24 uur)

TLE

VersSource: CelesTrak SupGP

Epoch: Sep 15, 2026, 02:20 UTC

1 53906C 22119W   26258.09770833 -.00004431  00000+0 -27799-3 0  2586
2 53906  53.1590 182.9216 0001400  86.2322 256.0265 15.08824132    16

Volg STARLINK-5054 in realtime met AllMySat

Download on the App Store